Back to catalog

COSMOS 981

AliveMilitaryLEO
NORAD 10588·PAYLOAD·🇷🇺 Russia

Launched Jan 10, 1978 from Plesetsk Cosmodrome

Loading…

Next Passes (next 24 hours)

TLE

FreshSource: Space-Track

Epoch: Sep 14, 2026, 06:20 UTC

1 10588U 78005F   26257.26421906 -.00000008  00000-0  55011-4 0  9999
2 10588  74.0348   8.2811 0020427   1.9755  21.7416 12.46468123211486

Track COSMOS 981 in real time with AllMySat

Download on the App Store